EN

Hourly Weather Aalsmeer

Today, 14 June, Monday

Time Temperature Precipitation Wind Pressure Humidity
00:00 +15°C° 0 mm 2 mps 768 mmHg 79%
01:00 +14°C° 0 mm 2 mps 767 mmHg 80%
02:00 +14°C° 0 mm 2 mps 767 mmHg 81%
03:00 +14°C° 0 mm 2 mps 766 mmHg 82%
04:00 +16°C° 0 mm 2 mps 766 mmHg 77%
05:00 +17°C° 0 mm 2 mps 766 mmHg 72%
06:00 +18°C° 0 mm 2 mps 766 mmHg 65%
07:00 +20°C° 0 mm 2 mps 766 mmHg 59%
08:00 +22°C° 0 mm 3 mps 766 mmHg 53%
09:00 +25°C° 0 mm 3 mps 765 mmHg 46%
10:00 +25°C° 0 mm 3 mps 765 mmHg 44%
11:00 +26°C° 0 mm 3 mps 765 mmHg 42%
12:00 +27°C° 0 mm 4 mps 765 mmHg 39%
13:00 +27°C° 0 mm 4 mps 765 mmHg 41%
14:00 +26°C° 0 mm 4 mps 765 mmHg 42%
15:00 +26°C° 0 mm 4 mps 764 mmHg 44%
16:00 +25°C° 0 mm 4 mps 764 mmHg 51%
17:00 +22°C° 0 mm 4 mps 764 mmHg 59%
18:00 +21°C° 0 mm 4 mps 764 mmHg 66%
19:00 +20°C° 0 mm 3 mps 765 mmHg 73%
20:00 +18°C° 0 mm 3 mps 765 mmHg 80%
21:00 +17°C° 0 mm 3 mps 765 mmHg 87%
22:00 +17°C° 0 mm 3 mps 765 mmHg 84%
23:00 +17°C° 0 mm 3 mps 765 mmHg 81%

Tomorrow, 15 June, Tuesday

Time Temperature Precipitation Wind Pressure Humidity
00:00 +17°C° 0 mm 2 mps 765 mmHg 79%
01:00 +16°C° 0 mm 2 mps 765 mmHg 75%
02:00 +16°C° 0 mm 2 mps 765 mmHg 72%
03:00 +16°C° 0 mm 2 mps 765 mmHg 69%
04:00 +16°C° 0 mm 2 mps 766 mmHg 68%
05:00 +16°C° 0 mm 2 mps 766 mmHg 67%
06:00 +16°C° 0 mm 2 mps 766 mmHg 66%
07:00 +17°C° 0 mm 2 mps 766 mmHg 61%
08:00 +18°C° 0 mm 2 mps 766 mmHg 56%
09:00 +20°C° 0 mm 2 mps 766 mmHg 51%
10:00 +21°C° 0 mm 2 mps 766 mmHg 49%
11:00 +22°C° 0 mm 3 mps 766 mmHg 47%
12:00 +24°C° 0 mm 3 mps 766 mmHg 44%
13:00 +24°C° 0 mm 3 mps 766 mmHg 45%
14:00 +24°C° 0 mm 3 mps 765 mmHg 45%
15:00 +24°C° 0 mm 3 mps 765 mmHg 45%
16:00 +22°C° 0 mm 3 mps 765 mmHg 50%
17:00 +21°C° 0 mm 3 mps 765 mmHg 54%
18:00 +20°C° 0 mm 3 mps 764 mmHg 59%
19:00 +18°C° 0 mm 3 mps 764 mmHg 64%
20:00 +17°C° 0 mm 3 mps 764 mmHg 69%
21:00 +15°C° 0 mm 2 mps 764 mmHg 74%
22:00 +15°C° 0 mm 2 mps 764 mmHg 77%
23:00 +15°C° 0 mm 2 mps 764 mmHg 80%

Day after tomorrow, 16 June, Wednesday

Time Temperature Precipitation Wind Pressure Humidity
00:00 +15°C° 0 mm 2 mps 763 mmHg 83%
01:00 +14°C° 0 mm 2 mps 763 mmHg 84%
02:00 +14°C° 0 mm 2 mps 763 mmHg 85%
03:00 +14°C° 0 mm 2 mps 763 mmHg 85%
04:00 +15°C° 0 mm 2 mps 762 mmHg 81%
05:00 +17°C° 0 mm 2 mps 762 mmHg 76%
06:00 +18°C° 0 mm 2 mps 762 mmHg 72%
07:00 +20°C° 0 mm 2 mps 762 mmHg 67%
08:00 +21°C° 0 mm 2 mps 761 mmHg 62%
09:00 +24°C° 0 mm 2 mps 761 mmHg 57%
10:00 +25°C° 0 mm 2 mps 761 mmHg 54%
11:00 +26°C° 0 mm 2 mps 760 mmHg 52%
12:00 +28°C° 0 mm 2 mps 760 mmHg 49%
13:00 +28°C° 0 mm 3 mps 760 mmHg 48%
14:00 +28°C° 0 mm 3 mps 759 mmHg 48%
15:00 +28°C° 0 mm 3 mps 759 mmHg 47%
16:00 +28°C° 0 mm 3 mps 759 mmHg 51%
17:00 +27°C° 0 mm 2 mps 758 mmHg 56%
18:00 +27°C° 0 mm 2 mps 758 mmHg 60%
19:00 +25°C° 0 mm 2 mps 758 mmHg 66%
20:00 +24°C° 0 mm 2 mps 758 mmHg 72%
21:00 +21°C° 0 mm 2 mps 758 mmHg 79%
22:00 +21°C° 0 mm 2 mps 758 mmHg 81%
23:00 +20°C° 0 mm 2 mps 758 mmHg 84%

17 June, Thursday

Time Temperature Precipitation Wind Pressure Humidity
00:00 +20°C° 0 mm 2 mps 758 mmHg 86%
01:00 +20°C° 0 mm 2 mps 757 mmHg 87%
02:00 +19°C° 0 mm 2 mps 757 mmHg 88%
03:00 +19°C° 0 mm 2 mps 757 mmHg 90%
04:00 +20°C° 0 mm 2 mps 757 mmHg 85%
05:00 +23°C° 0 mm 2 mps 757 mmHg 80%
06:00 +24°C° 0 mm 2 mps 757 mmHg 76%
07:00 +25°C° 0 mm 2 mps 757 mmHg 69%
08:00 +27°C° 0 mm 2 mps 757 mmHg 63%
09:00 +29°C° 0 mm 2 mps 757 mmHg 56%
10:00 +29°C° 0.1 mm 3 mps 757 mmHg 56%
11:00 +30°C° 0.1 mm 4 mps 757 mmHg 56%
12:00 +30°C° 0.1 mm 5 mps 757 mmHg 56%
13:00 +28°C° 0.5 mm 5 mps 757 mmHg 63%
14:00 +26°C° 0.5 mm 4 mps 758 mmHg 71%
15:00 +23°C° 0.5 mm 4 mps 758 mmHg 78%
16:00 +23°C° 0 mm 4 mps 758 mmHg 77%
17:00 +23°C° 0 mm 4 mps 759 mmHg 76%
18:00 +22°C° 0 mm 3 mps 759 mmHg 75%
19:00 +21°C° 0 mm 3 mps 759 mmHg 81%
20:00 +19°C° 0 mm 3 mps 759 mmHg 87%
21:00 +18°C° 0 mm 2 mps 760 mmHg 93%
22:00 +17°C° 0 mm 2 mps 760 mmHg 94%
23:00 +17°C° 0 mm 3 mps 760 mmHg 95%

18 June, Friday

Time Temperature Precipitation Wind Pressure Humidity
00:00 +17°C° 0 mm 3 mps 760 mmHg 96%
01:00 +17°C° 0 mm 3 mps 761 mmHg 95%
02:00 +17°C° 0 mm 3 mps 761 mmHg 95%
03:00 +17°C° 0 mm 3 mps 761 mmHg 94%
04:00 +17°C° 0 mm 3 mps 761 mmHg 92%
05:00 +17°C° 0 mm 3 mps 761 mmHg 90%
06:00 +18°C° 0 mm 3 mps 761 mmHg 88%
07:00 +18°C° 0.3 mm 3 mps 761 mmHg 89%
08:00 +18°C° 0.3 mm 3 mps 761 mmHg 89%
09:00 +18°C° 0.3 mm 4 mps 761 mmHg 90%
10:00 +18°C° 0.2 mm 3 mps 761 mmHg 89%
11:00 +19°C° 0.2 mm 3 mps 761 mmHg 88%
12:00 +19°C° 0.2 mm 3 mps 761 mmHg 87%
13:00 +20°C° 0 mm 4 mps 760 mmHg 83%
14:00 +21°C° 0 mm 4 mps 760 mmHg 79%
15:00 +22°C° 0 mm 4 mps 760 mmHg 74%
16:00 +22°C° 0.1 mm 4 mps 759 mmHg 77%
17:00 +22°C° 0.1 mm 5 mps 759 mmHg 79%
18:00 +22°C° 0.1 mm 5 mps 759 mmHg 82%
19:00 +21°C° 0.7 mm 5 mps 758 mmHg 87%
20:00 +20°C° 0.7 mm 5 mps 758 mmHg 92%
21:00 +18°C° 0.7 mm 4 mps 758 mmHg 97%
22:00 +18°C° 0.2 mm 4 mps 758 mmHg 97%
23:00 +18°C° 0.2 mm 4 mps 758 mmHg 97%

19 June, Saturday

Time Temperature Precipitation Wind Pressure Humidity
00:00 +18°C° 0.2 mm 3 mps 758 mmHg 98%
01:00 +19°C° 0 mm 3 mps 758 mmHg 97%
02:00 +19°C° 0 mm 4 mps 758 mmHg 97%
03:00 +19°C° 0 mm 4 mps 758 mmHg 96%
04:00 +19°C° 0 mm 5 mps 758 mmHg 93%
05:00 +17°C° 0 mm 6 mps 759 mmHg 91%
06:00 +17°C° 0 mm 6 mps 759 mmHg 88%
07:00 +17°C° 0 mm 7 mps 759 mmHg 84%
08:00 +18°C° 0 mm 7 mps 760 mmHg 80%
09:00 +18°C° 0 mm 7 mps 760 mmHg 76%
10:00 +20°C° 0 mm 7 mps 760 mmHg 72%
11:00 +21°C° 0 mm 7 mps 761 mmHg 68%
12:00 +21°C° 0 mm 6 mps 761 mmHg 64%
13:00 +21°C° 0 mm 6 mps 761 mmHg 64%
14:00 +21°C° 0 mm 5 mps 761 mmHg 65%
15:00 +21°C° 0 mm 5 mps 761 mmHg 65%
16:00 +20°C° 0 mm 5 mps 761 mmHg 67%
17:00 +19°C° 0 mm 4 mps 761 mmHg 69%
18:00 +19°C° 0 mm 4 mps 760 mmHg 72%
19:00 +16°C° 0 mm 5 mps 760 mmHg 76%
20:00 +15°C° 0 mm 5 mps 760 mmHg 81%
21:00 +14°C° 0 mm 5 mps 759 mmHg 86%
22:00 +14°C° 1.5 mm 6 mps 759 mmHg 89%
23:00 +14°C° 1.5 mm 6 mps 758 mmHg 93%
Show more